Location: Dürabuch
(48.2640°N, 11.2185°E)
Time: 10:13:41
(UTC+00:00)

Cosmos 1892 - Pass Details

Date: 23 May 2024
Orbit: 455 x 468 km, 82.5° (Epoch: 15 June)

Event Time Altitude Azimuth Distance (km) Brightness Sun altitude
Exits shadow 02:40:15 - 194° (SSW) 2,034 5.2 -6.9°
Reaches altitude 10° 02:41:17 10° 195° (SSW) 1,602 4.7 -6.7°
Maximum altitude 02:44:46 71° 279° (W) 490 2.5 -6.3°
Drops below altitude 10° 02:48:16 10° 5° (N) 1,610 5.9 -5.9°
Sets 02:50:22 0° 8° (N) 2,488 7.0 -5.6°
